Time,TemperatureF,DewpointF,PressureIn,WindDirection,WindDirectionDegrees,WindSpeedMPH,WindSpeedGustMPH,Humidity,HourlyPrecipIn,Conditions,Clouds,dailyrainin,SoftwareType,DateUTC
2013-10-09 00:04:00,-999.0,-99.9,29.89,North,-999,-999.0,-999.0,-999,-99.99,,,0.00,weatherlink.com 1.10,2013-10-09 04:04:00,
2013-10-09 00:19:00,-999.0,-99.9,29.88,North,-999,-999.0,-999.0,-999,-99.99,,,0.00,weatherlink.com 1.10,2013-10-09 04:19:00,
2013-10-09 00:34:00,-999.0,-99.9,29.88,North,-999,-999.0,-999.0,-999,-99.99,,,0.00,weatherlink.com 1.10,2013-10-09 04:34:00,
2013-10-09 00:49:00,-999.0,-99.9,29.88,North,-999,-999.0,-999.0,-999,-99.99,,,0.00,weatherlink.com 1.10,2013-10-09 04:49:00,
2013-10-09 01:04:00,-999.0,-99.9,29.88,North,-999,-999.0,-999.0,-999,-99.99,,,0.00,weatherlink.com 1.10,2013-10-09 05:04:00,
2013-10-09 01:19:00,-999.0,-99.9,29.87,North,-999,-999.0,-999.0,-999,-99.99,,,0.00,weatherlink.com 1.10,2013-10-09 05:19:00,
2013-10-09 01:34:00,-999.0,-99.9,29.88,North,-999,-999.0,-999.0,-999,-99.99,,,0.00,weatherlink.com 1.10,2013-10-09 05:34:00,
2013-10-09 01:49:00,-999.0,-99.9,29.88,North,-999,-999.0,-999.0,-999,-99.99,,,0.00,weatherlink.com 1.10,2013-10-09 05:49:00,
2013-10-09 02:04:00,-999.0,-99.9,29.88,North,-999,-999.0,-999.0,-999,-99.99,,,0.00,weatherlink.com 1.10,2013-10-09 06:04:00,
2013-10-09 02:19:00,-999.0,-99.9,29.88,North,-999,-999.0,-999.0,-999,-99.99,,,0.00,weatherlink.com 1.10,2013-10-09 06:19:00,
2013-10-09 02:34:00,-999.0,-99.9,29.88,North,-999,-999.0,-999.0,-999,-99.99,,,0.00,weatherlink.com 1.10,2013-10-09 06:34:00,
2013-10-09 02:49:00,-999.0,-99.9,29.88,North,-999,-999.0,-999.0,-999,-99.99,,,0.00,weatherlink.com 1.10,2013-10-09 06:49:00,
2013-10-09 03:04:00,-999.0,-99.9,29.88,North,-999,-999.0,-999.0,-999,-99.99,,,0.00,weatherlink.com 1.10,2013-10-09 07:04:00,
2013-10-09 03:19:00,-999.0,-99.9,29.87,North,-999,-999.0,-999.0,-999,-99.99,,,0.00,weatherlink.com 1.10,2013-10-09 07:19:00,
2013-10-09 03:34:00,-999.0,-99.9,29.87,North,-999,-999.0,-999.0,-999,-99.99,,,0.00,weatherlink.com 1.10,2013-10-09 07:34:00,
2013-10-09 03:49:00,-999.0,-99.9,29.87,North,-999,-999.0,-999.0,-999,-99.99,,,0.00,weatherlink.com 1.10,2013-10-09 07:49:00,
2013-10-09 04:04:00,-999.0,-99.9,29.87,North,-999,-999.0,-999.0,-999,-99.99,,,0.00,weatherlink.com 1.10,2013-10-09 08:04:00,
2013-10-09 04:19:00,-999.0,-99.9,29.87,North,-999,-999.0,-999.0,-999,-99.99,,,0.00,weatherlink.com 1.10,2013-10-09 08:19:00,
2013-10-09 04:34:00,-999.0,-99.9,29.87,North,-999,-999.0,-999.0,-999,-99.99,,,0.00,weatherlink.com 1.10,2013-10-09 08:34:00,
2013-10-09 04:49:00,-999.0,-99.9,29.87,North,-999,-999.0,-999.0,-999,-99.99,,,0.00,weatherlink.com 1.10,2013-10-09 08:49:00,
2013-10-09 05:04:00,-999.0,-99.9,29.87,North,-999,-999.0,-999.0,-999,-99.99,,,0.00,weatherlink.com 1.10,2013-10-09 09:04:00,
2013-10-09 05:19:00,-999.0,-99.9,29.87,North,-999,-999.0,-999.0,-999,-99.99,,,0.00,weatherlink.com 1.10,2013-10-09 09:19:00,
2013-10-09 05:34:00,-999.0,-99.9,29.87,North,-999,-999.0,-999.0,-999,-99.99,,,0.00,weatherlink.com 1.10,2013-10-09 09:34:00,
2013-10-09 05:49:00,-999.0,-99.9,29.87,North,-999,-999.0,-999.0,-999,-99.99,,,0.00,weatherlink.com 1.10,2013-10-09 09:49:00,
2013-10-09 06:04:00,-999.0,-99.9,29.88,North,-999,-999.0,-999.0,-999,-99.99,,,0.00,weatherlink.com 1.10,2013-10-09 10:04:00,
2013-10-09 06:19:00,-999.0,-99.9,29.88,North,-999,-999.0,-999.0,-999,-99.99,,,0.00,weatherlink.com 1.10,2013-10-09 10:19:00,
2013-10-09 06:34:00,-999.0,-99.9,29.88,North,-999,-999.0,-999.0,-999,-99.99,,,0.00,weatherlink.com 1.10,2013-10-09 10:34:00,
2013-10-09 06:49:00,-999.0,-99.9,29.88,North,-999,-999.0,-999.0,-999,-99.99,,,0.00,weatherlink.com 1.10,2013-10-09 10:49:00,
2013-10-09 07:04:00,-999.0,-99.9,29.89,North,-999,-999.0,-999.0,-999,-99.99,,,0.00,weatherlink.com 1.10,2013-10-09 11:04:00,
2013-10-09 07:19:00,-999.0,-99.9,29.90,North,-999,-999.0,-999.0,-999,-99.99,,,0.00,weatherlink.com 1.10,2013-10-09 11:19:00,
2013-10-09 07:34:00,-999.0,-99.9,29.89,North,-999,-999.0,-999.0,-999,-99.99,,,0.00,weatherlink.com 1.10,2013-10-09 11:34:00,
2013-10-09 07:49:00,-999.0,-99.9,29.89,North,-999,-999.0,-999.0,-999,-99.99,,,0.00,weatherlink.com 1.10,2013-10-09 11:49:00,
2013-10-09 08:04:00,-999.0,-99.9,29.90,North,-999,-999.0,-999.0,-999,-99.99,,,0.00,weatherlink.com 1.10,2013-10-09 12:04:00,
2013-10-09 08:19:00,-999.0,-99.9,29.90,North,-999,-999.0,-999.0,-999,-99.99,,,0.00,weatherlink.com 1.10,2013-10-09 12:19:00,
2013-10-09 08:34:00,75.3,72.0,29.90,West,269,4.0,-999.0,90,-99.99,,,0.00,weatherlink.com 1.10,2013-10-09 12:34:00,
2013-10-09 08:49:00,77.0,73.0,29.91,West,270,0.0,-999.0,87,-99.99,,,0.00,weatherlink.com 1.10,2013-10-09 12:49:00,
2013-10-09 09:04:00,77.9,73.0,29.91,West,276,4.0,-999.0,84,-99.99,,,0.00,weatherlink.com 1.10,2013-10-09 13:04:00,
2013-10-09 09:19:00,78.5,73.0,29.91,WNW,286,0.0,-999.0,83,-99.99,,,0.00,weatherlink.com 1.10,2013-10-09 13:19:00,
2013-10-09 09:34:00,78.3,73.0,29.92,West,263,0.0,-999.0,83,-99.99,,,0.00,weatherlink.com 1.10,2013-10-09 13:34:00,
2013-10-09 09:49:00,79.2,74.0,29.92,WNW,284,1.0,-999.0,83,-99.99,,,0.00,weatherlink.com 1.10,2013-10-09 13:49:00,
2013-10-09 10:04:00,80.3,74.0,29.92,NW,306,2.0,-999.0,81,-99.99,,,0.00,weatherlink.com 1.10,2013-10-09 14:04:00,
2013-10-09 10:19:00,81.2,74.0,29.93,West,261,7.0,-999.0,79,-99.99,,,0.00,weatherlink.com 1.10,2013-10-09 14:19:00,
2013-10-09 10:34:00,81.4,74.0,29.93,West,271,3.0,-999.0,77,-99.99,,,0.00,weatherlink.com 1.10,2013-10-09 14:34:00,
2013-10-09 10:49:00,81.6,74.0,29.93,West,281,3.0,-999.0,77,-99.99,,,0.00,weatherlink.com 1.10,2013-10-09 14:49:00,
2013-10-09 11:04:00,81.6,74.0,29.93,WNW,301,4.0,-999.0,77,-99.99,,,0.00,weatherlink.com 1.10,2013-10-09 15:04:00,
2013-10-09 11:34:00,81.8,74.0,29.94,WNW,302,2.0,-999.0,77,-99.99,,,0.00,weatherlink.com 1.10,2013-10-09 15:34:00,
2013-10-09 11:49:00,81.8,74.0,29.94,WNW,284,2.0,-999.0,76,-99.99,,,0.00,weatherlink.com 1.10,2013-10-09 15:49:00,
2013-10-09 12:04:00,82.2,74.0,29.94,NNW,333,8.0,-999.0,77,-99.99,,,0.00,weatherlink.com 1.10,2013-10-09 16:04:00,
2013-10-09 12:19:00,83.4,75.0,29.93,NW,318,6.0,-999.0,75,-99.99,,,0.00,weatherlink.com 1.10,2013-10-09 16:19:00,
2013-10-09 12:34:00,83.6,75.0,29.93,NW,306,4.0,-999.0,74,-99.99,,,0.00,weatherlink.com 1.10,2013-10-09 16:34:00,
2013-10-09 12:49:00,84.1,74.0,29.93,WNW,299,4.0,-999.0,72,-99.99,,,0.00,weatherlink.com 1.10,2013-10-09 16:49:00,
2013-10-09 13:04:00,84.0,74.0,29.91,West,275,3.0,-999.0,72,-99.99,,,0.00,weatherlink.com 1.10,2013-10-09 17:04:00,
2013-10-09 13:19:00,84.1,75.0,29.91,WNW,292,5.0,-999.0,73,-99.99,,,0.00,weatherlink.com 1.10,2013-10-09 17:19:00,
2013-10-09 13:34:00,83.8,75.0,29.90,NNE,12,0.0,-999.0,74,-99.99,,,0.00,weatherlink.com 1.10,2013-10-09 17:34:00,
2013-10-09 13:49:00,84.3,75.0,29.90,NW,308,4.0,-999.0,74,-99.99,,,0.00,weatherlink.com 1.10,2013-10-09 17:49:00,
2013-10-09 14:04:00,84.0,75.0,29.90,West,277,4.0,-999.0,73,-99.99,,,0.00,weatherlink.com 1.10,2013-10-09 18:04:00,
2013-10-09 14:19:00,84.1,75.0,29.89,NNE,31,4.0,-999.0,73,-99.99,,,0.00,weatherlink.com 1.10,2013-10-09 18:19:00,
2013-10-09 14:34:00,85.1,75.0,29.89,North,351,5.0,-999.0,71,-99.99,,,0.00,weatherlink.com 1.10,2013-10-09 18:34:00,
2013-10-09 14:49:00,85.5,75.0,29.88,NE,36,4.0,-999.0,70,-99.99,,,0.00,weatherlink.com 1.10,2013-10-09 18:49:00,
2013-10-09 15:04:00,87.2,75.0,29.88,WNW,295,3.0,-999.0,68,-99.99,,,0.00,weatherlink.com 1.10,2013-10-09 19:04:00,
2013-10-09 15:19:00,86.5,75.0,29.87,NE,40,5.0,-999.0,69,-99.99,,,0.00,weatherlink.com 1.10,2013-10-09 19:19:00,
2013-10-09 15:34:00,86.1,75.0,29.87,NNE,30,5.0,-999.0,70,-99.99,,,0.00,weatherlink.com 1.10,2013-10-09 19:34:00,
2013-10-09 15:49:00,83.8,76.0,29.88,NE,55,6.0,-999.0,78,-99.99,,,0.00,weatherlink.com 1.10,2013-10-09 19:49:00,
2013-10-09 16:04:00,82.2,76.0,29.88,NE,38,5.0,-999.0,82,-99.99,,,0.00,weatherlink.com 1.10,2013-10-09 20:04:00,
2013-10-09 16:19:00,82.0,75.0,29.88,ENE,59,5.0,-999.0,80,-99.99,,,0.00,weatherlink.com 1.10,2013-10-09 20:19:00,
2013-10-09 16:34:00,81.8,75.0,29.88,NNE,17,4.0,-999.0,80,-99.99,,,0.00,weatherlink.com 1.10,2013-10-09 20:34:00,
2013-10-09 16:50:00,82.2,75.0,29.88,NNE,15,2.0,-999.0,78,-99.99,,,0.00,weatherlink.com 1.10,2013-10-09 20:50:00,
2013-10-09 17:04:00,82.8,74.0,29.88,NNE,31,4.0,-999.0,75,-99.99,,,0.00,weatherlink.com 1.10,2013-10-09 21:04:00,
2013-10-09 17:19:00,83.0,75.0,29.88,ENE,62,5.0,-999.0,76,-99.99,,,0.00,weatherlink.com 1.10,2013-10-09 21:19:00,
2013-10-09 17:34:00,-999.0,-99.9,29.88,North,-999,-999.0,-999.0,-999,-99.99,,,0.00,weatherlink.com 1.10,2013-10-09 21:34:00,
2013-10-09 17:50:00,-999.0,-99.9,29.88,North,-999,-999.0,-999.0,-999,-99.99,,,0.00,weatherlink.com 1.10,2013-10-09 21:50:00,
2013-10-09 18:04:00,-999.0,-99.9,29.88,North,-999,-999.0,-999.0,-999,-99.99,,,0.00,weatherlink.com 1.10,2013-10-09 22:04:00,
2013-10-09 18:19:00,-999.0,-99.9,29.88,North,-999,-999.0,-999.0,-999,-99.99,,,0.00,weatherlink.com 1.10,2013-10-09 22:19:00,
2013-10-09 18:34:00,-999.0,-99.9,29.88,North,-999,-999.0,-999.0,-999,-99.99,,,0.00,weatherlink.com 1.10,2013-10-09 22:34:00,
2013-10-09 18:49:00,-999.0,-99.9,29.88,North,-999,-999.0,-999.0,-999,-99.99,,,0.00,weatherlink.com 1.10,2013-10-09 22:49:00,
2013-10-09 19:04:00,-999.0,-99.9,29.89,North,-999,-999.0,-999.0,-999,-99.99,,,0.00,weatherlink.com 1.10,2013-10-09 23:04:00,
2013-10-09 19:19:00,-999.0,-99.9,29.89,North,-999,-999.0,-999.0,-999,-99.99,,,0.00,weatherlink.com 1.10,2013-10-09 23:19:00,
2013-10-09 19:34:00,-999.0,-99.9,29.88,North,-999,-999.0,-999.0,-999,-99.99,,,0.00,weatherlink.com 1.10,2013-10-09 23:34:00,
2013-10-09 19:49:00,-999.0,-99.9,29.89,North,-999,-999.0,-999.0,-999,-99.99,,,0.00,weatherlink.com 1.10,2013-10-09 23:49:00,
2013-10-09 20:04:00,-999.0,-99.9,29.89,North,-999,-999.0,-999.0,-999,-99.99,,,0.00,weatherlink.com 1.10,2013-10-10 00:04:00,
2013-10-09 20:19:00,-999.0,-99.9,29.89,North,-999,-999.0,-999.0,-999,-99.99,,,0.00,weatherlink.com 1.10,2013-10-10 00:19:00,
2013-10-09 20:34:00,-999.0,-99.9,29.90,North,-999,-999.0,-999.0,-999,-99.99,,,0.00,weatherlink.com 1.10,2013-10-10 00:34:00,
2013-10-09 20:49:00,-999.0,-99.9,29.90,North,-999,-999.0,-999.0,-999,-99.99,,,0.00,weatherlink.com 1.10,2013-10-10 00:49:00,
2013-10-09 21:04:00,-999.0,-99.9,29.90,North,-999,-999.0,-999.0,-999,-99.99,,,0.00,weatherlink.com 1.10,2013-10-10 01:04:00,
2013-10-09 21:19:00,-999.0,-99.9,29.91,North,-999,-999.0,-999.0,-999,-99.99,,,0.00,weatherlink.com 1.10,2013-10-10 01:19:00,
2013-10-09 21:34:00,-999.0,-99.9,29.91,North,-999,-999.0,-999.0,-999,-99.99,,,0.00,weatherlink.com 1.10,2013-10-10 01:34:00,
2013-10-09 21:49:00,-999.0,-99.9,29.91,North,-999,-999.0,-999.0,-999,-99.99,,,0.00,weatherlink.com 1.10,2013-10-10 01:49:00,
2013-10-09 22:04:00,-999.0,-99.9,29.93,North,-999,-999.0,-999.0,-999,-99.99,,,0.00,weatherlink.com 1.10,2013-10-10 02:04:00,
2013-10-09 22:19:00,-999.0,-99.9,29.93,North,-999,-999.0,-999.0,-999,-99.99,,,0.00,weatherlink.com 1.10,2013-10-10 02:19:00,
2013-10-09 22:34:00,-999.0,-99.9,29.93,North,-999,-999.0,-999.0,-999,-99.99,,,0.00,weatherlink.com 1.10,2013-10-10 02:34:00,
2013-10-09 22:49:00,-999.0,-99.9,29.94,North,-999,-999.0,-999.0,-999,-99.99,,,0.00,weatherlink.com 1.10,2013-10-10 02:49:00,
2013-10-09 23:04:00,-999.0,-99.9,29.94,North,-999,-999.0,-999.0,-999,-99.99,,,0.00,weatherlink.com 1.10,2013-10-10 03:04:00,
2013-10-09 23:21:00,-999.0,-99.9,29.94,North,-999,-999.0,-999.0,-999,-99.99,,,0.00,weatherlink.com 1.10,2013-10-10 03:21:00,
2013-10-09 23:34:00,-999.0,-99.9,29.93,North,-999,-999.0,-999.0,-999,-99.99,,,0.00,weatherlink.com 1.10,2013-10-10 03:34:00,
2013-10-09 23:49:00,-999.0,-99.9,29.94,North,-999,-999.0,-999.0,-999,-99.99,,,0.00,weatherlink.com 1.10,2013-10-10 03:49:00,